C/2017 M4 ( ATLAS )

Japanese version
Home page
Updated on August 17, 2018

---------------------------------------------------------------------

* Profile

Discovery Date June 21, 2017
Magnitude 18.3 mag
Discoverer Asteroid Terrestrial-impact Last Alert System (ATLAS) Team

* Pictures

* Orbital Elements

Epoch 2019 Feb. 6.0 TT = JDT 2458520.5
T 2019 Jan. 18.18410 TT                                 MPCW
q   3.2517044            (2000.0)            P               Q
z  -0.0007199      Peri.  167.62258     -0.34655085     -0.32821328
 +/-0.0000009      Node    65.86748     -0.92163494     +0.29352421
e   1.0023409      Incl.  105.65766     -0.17461830     -0.89784162
From 931 observations 2017 June 16-2018 Mar. 25, mean residual 0".4.

* Finding Charts

* Magnitudes Graph

        m1 = 6.0 + 5 log d + 10.0 log r

---------------------------------------------------------------------

The orbital elements are published on M.P.E.C. 2018-F152.
The charts are made with StellaNavigator Ver.10 (AstroArts).
The magnitudes graphs are made with Comet for Windows.

---------------------------------------------------------------------

Copyright(C) Seiichi Yoshida (comet@aerith.net). All rights reserved.